MMS 4

Last updated on Nov. 19, 2019, 4:25 a.m. UTC

1 40485U 15011D   19322.20395605  .00000064  00000-0  00000+0 0  9995
2 40485  21.0662 120.0170 8868981  16.2746 223.6377  0.28565315 10595
UTC
Height (km)
Latitude
Longitude
Inclination
Orbital Period
UTC large
Height (km)
Speed (km/s)
/
Latitude / Longitude
Inclination (degrees)
Orbital Period (minutes)
Azimuth
Elevation
Range (km)
Doppler Factor
iOS Compass Heading
iOS Angle

Next 30 passes for location: Hong Kong

Rise time Rise Azimuth (degrees) Set time Set Azimuth (degrees) Duration Max altitude (degrees)

No matching passes for this satellites